Airfield :
LOGIN :

Register | Disclaimer

   EN    FR    IT 

 










Legend :    VFR   Marginal VFR   IFR   Intensive IFR   Very Intensive IFR
Visi :
Ceiling :
>= 8 km
>= 3000ft
5 to 8 km
1000 to 3000 ft
1500m to 5 km
500 to 1000 ft
800 to 1500m
200 to 500 ft
< 800m
< 200 ft
Symbols :   Thunderstorms  Fog  Heavy snow  Heavy precipitations  Wind > 20 kt
SIGMETs :     Misc.  Thunderstorms  Icing  Turbulence  Mountain Waves  Volcanic Ashes






- Airport Elevation : 20 ft
- IATA code : BJA


DAAE - Soummam - Bejaia

CURRENT METAR :
  • 191200Z 09007KT 9999 FEW023 18/09 Q1020

EXPIRED METARs :
  • 191100Z 13008KT 360V150 9999 FEW023 18/05 Q1020
  • 191000Z 27012KT 240V300 CAVOK 18/05 Q1020

TAF TAF DAAE
Valid from the 19 at 12:00 until the 20 at 12:00 UTC


191100Z 1912/2012 04008KT 9999 FEW030
BECMG 1915/1917 19006KT
BECMG 2007/2009 02008KT



MET'MAP, your aeronautical weather chart ! - Copyright ORBIFLY December 2007 - Disclaimer

ORBIFLY MET'MAP TEAM :

Programming & Development : Alexandra Zaïnal
Concept & original design : Baudouin d'Aumeries
Assistance for programming : Marc-Olivier Méhu
Technical & hardware support : Manuel Goepfert

Contact : metmap@orbifly.com




SOURCES & CREDITS :

   NOAA